QPF
0.00 0.00 0.00 0.00 0.00 0.00 0.00 0.00 0.00 0.00 0.00 0.00 0.00 0.00 0.00 0.00 0.00 0.00 0.00 0.00 0.00 0.00 0.00 0.00 0.00 0.00 0.00 0.00 0.00 0.00 0.00 0.00 0.00 0.00 0.00 0.00 0.00 0.00 0.00 0.00 0.00 0.00 0.00 0.00 0.00 0.00 0.00
0.00 0.00 0.00 0.00 0.00 0.00 0.00 0.00 0.00 0.00 0.00 0.00 0.00 0.00 0.00 0.00 0.00 0.00 0.00 0.00 0.00 0.00 0.00 0.00 0.00 0.00 0.00 0.00 0.00 0.00 0.00 0.00 0.00 0.00 0.00 0.00 0.00 0.00 0.00 0.00 0.00 0.00 0.00 0.00 0.00 0.00 0.00
0.00 0.00 0.00 0.00 0.00 0.00 0.00 0.00 0.00 0.00 0.00 0.00 0.00 0.00 0.00 0.00 0.00 0.00 0.00 0.00 0.00 0.00 0.00 0.00 0.00 0.00 0.00 0.00 0.00 0.00 0.00 0.00 0.00 0.00 0.00 0.00 0.00 0.00 0.00 0.00 0.00 0.00 0.00 0.00 0.00 0.00 0.00
0.00 0.00 0.00 0.00 0.00 0.00 0.00 0.00 0.00 0.00 0.00 0.00 0.00 0.00 0.00 0.00 0.00 0.00 0.00 0.00 0.00 0.00 0.00 0.00 0.00 0.00 0.00 0.00 0.00 0.00 0.00 0.00 0.00 0.00 0.00 0.00 0.00 0.00 0.00 0.00 0.00 0.00 0.00 0.00 0.00 0.00 0.00
0.00 0.00 0.00 0.00 0.00 0.00 0.00 0.00 0.00 0.00 0.00 0.00 0.00 0.00 0.00 0.00 0.00 0.00 0.00 0.00 0.00 0.00 0.00 0.00 0.00 0.00 0.00 0.00 0.00 0.00 0.00 0.00 0.00 0.00 0.00 0.00 0.00 0.00 0.00 0.00 0.00 0.00 0.00 0.00 0.00 0.00 0.00
0.00 0.00 0.00 0.00 0.00 0.00 0.00 0.00 0.00 0.00 0.00 0.00 0.00 0.00 0.00 0.00 0.00 0.00 0.00 0.00 0.00 0.00 0.00 0.00 0.00 0.00 0.00 0.00 0.00 0.00 0.00 0.00 0.00 0.00 0.00 0.00 0.00 0.00 0.00 0.00 0.00 0.00 0.00 0.00 0.00 0.00 0.00
0.00 0.00 0.00 0.00 0.00 0.00 0.00 0.00 0.00 0.00 0.00 0.00 0.00 0.00 0.00 0.00 0.00 0.00 0.00 0.00 0.00 0.00 0.00 0.00 0.00 0.00 0.00 0.00 0.00 0.00 0.00 0.00 0.00 0.00 0.00 0.00 0.00 0.00 0.00 0.00 0.00 0.00 0.00 0.00 0.00 0.00 0.00
0.00 0.00 0.00 0.00 0.00 0.00 0.00 0.00 0.00 0.00 0.00 0.00 0.00 0.00 0.00 0.00 0.00 0.00 0.00 0.00 0.00 0.00 0.00 0.00 0.00 0.00 0.00 0.00 0.00 0.00 0.00 0.00 0.00 0.00 0.00 0.00 0.00 0.00 0.00 0.00 0.00 0.00 0.00 0.00 0.00 0.00 0.00
0.00 0.00 0.00 0.00 0.00 0.00 0.00 0.00 0.00 0.00 0.00 0.00 0.00 0.00 0.00 0.00 0.00 0.00 0.00 0.00 0.00 0.00 0.00 0.00 0.00 0.00 0.00 0.00 0.00 0.00 0.00 0.00 0.00 0.00 0.00 0.00 0.00 0.00 0.00 0.00 0.00 0.00 0.00 0.00 0.00 0.00 0.00
0.00 0.00 0.00 0.00 0.00 0.00 0.00 0.00 0.00 0.00 0.00 0.00 0.00 0.00 0.00 0.00 0.00 0.00 0.00 0.00 0.00 0.00 0.00 0.00 0.00 0.00 0.00 0.00 0.00 0.00 0.00 0.00 0.00 0.00 0.00 0.00 0.00 0.00 0.00 0.00 0.00 0.00 0.00 0.00 0.00 0.00 0.00
0.00 0.00 0.00 0.00 0.00 0.00 0.00 0.00 0.00 0.00 0.00 0.00 0.00 0.00 0.00 0.00 0.00 0.00 0.00 0.00 0.00 0.01 0.01 0.00 0.00 0.00 0.00 0.00 0.00 0.00 0.00 0.00 0.00 0.00 0.00 0.00 0.00 0.00 0.00 0.00 0.00 0.00 0.00 0.00 0.00 0.00 0.00
0.00 0.00 0.00 0.00 0.00 0.00 0.00 0.00 0.00 0.00 0.00 0.00 0.00 0.00 0.00 0.00 0.00 0.00 0.00 0.00 0.00 0.03 0.02 0.00 0.00 0.00 0.00 0.00 0.00 0.00 0.00 0.00 0.00 0.00 0.00 0.00 0.00 0.00 0.00 0.00 0.00 0.00 0.00 0.00 0.00 0.00 0.00
0.00 0.00 0.00 0.00 0.00 0.00 0.00 0.00 0.00 0.00 0.00 0.00 0.00 0.00 0.00 0.00 0.00 0.00 0.00 0.00 0.03 0.02 0.00 0.00 0.00 0.00 0.00 0.00 0.00 0.00 0.00 0.00 0.00 0.00 0.00 0.00 0.00 0.00 0.00 0.00 0.00 0.00 0.00 0.00 0.00 0.00 0.00
0.00 0.00 0.00 0.00 0.00 0.00 0.00 0.00 0.00 0.00 0.00 0.00 0.00 0.00 0.00 0.00 0.00 0.00 0.01 0.05 0.10 0.01 0.00 0.00 0.00 0.00 0.01 0.01 0.02 0.02 0.01 0.00 0.00 0.00 0.00 0.00 0.00 0.00 0.00 0.00 0.00 0.00 0.00 0.00 0.00 0.00 0.00
0.00 0.00 0.00 0.00 0.00 0.00 0.00 0.00 0.00 0.00 0.00 0.00 0.00 0.00 0.00 0.00 0.00 0.00 0.03 0.11 0.05 0.03 0.06 0.03 0.00 0.01 0.01 0.02 0.02 0.02 0.03 0.02 0.00 0.00 0.00 0.00 0.00 0.00 0.00 0.00 0.00 0.00 0.00 0.00 0.00 0.00 0.00
0.00 0.00 0.00 0.00 0.00 0.00 0.00 0.00 0.00 0.00 0.00 0.00 0.00 0.00 0.00 0.00 0.00 0.00 0.04 0.02 0.01 0.02 0.01 0.00 0.01 0.01 0.00 0.02 0.05 0.08 0.06 0.08 0.03 0.01 0.00 0.00 0.00 0.00 0.00 0.00 0.00 0.00 0.00 0.00 0.00 0.00 0.00
0.00 0.00 0.00 0.00 0.00 0.00 0.00 0.00 0.00 0.00 0.00 0.01 0.00 0.00 0.00 0.00 0.00 0.01 0.02 0.01 0.00 0.00 0.00 0.00 0.00 0.01 0.01 0.02 0.03 0.11 0.27 0.21 0.05 0.03 0.00 0.00 0.00 0.00 0.00 0.00 0.00 0.00 0.00 0.00 0.00 0.00 0.00
0.00 0.00 0.00 0.00 0.00 0.01 0.00 0.00 0.00 0.00 0.01 0.00 0.00 0.00 0.00 0.00 0.00 0.03 0.01 0.01 0.01 0.00 0.00 0.00 0.00 0.01 0.02 0.02 0.03 0.08 0.15 0.11 0.05 0.01 0.02 0.00 0.00 0.00 0.00 0.00 0.00 0.00 0.00 0.00 0.00 0.00 0.00
0.00 0.00 0.00 0.01 0.00 0.00 0.00 0.00 0.00 0.00 0.02 0.00 0.00 0.00 0.00 0.00 0.00 0.03 0.03 0.00 0.00 0.00 0.00 0.00 0.00 0.01 0.00 0.00 0.01 0.02 0.03 0.00 0.00 0.00 0.01 0.03 0.02 0.01 0.03 0.02 0.00 0.00 0.00 0.00 0.00 0.00 0.00
0.01 0.00 0.00 0.00 0.00 0.01 0.00 0.00 0.00 0.01 0.02 0.00 0.00 0.00 0.00 0.01 0.03 0.03 0.05 0.01 0.00 0.00 0.01 0.02 0.01 0.00 0.00 0.00 0.00 0.01 0.00 0.00 0.00 0.00 0.00 0.02 0.03 0.02 0.02 0.01 0.00 0.00 0.00 0.00 0.00 0.00 0.00
0.00 0.00 0.00 0.00 0.00 0.01 0.01 0.00 0.00 0.00 0.02 0.00 0.00 0.00 0.00 0.00 0.00 0.00 0.00 0.00 0.01 0.03 0.02 0.03 0.01 0.01 0.00 0.00 0.00 0.00 0.00 0.00 0.00 0.00 0.00 0.01 0.05 0.02 0.00 0.00 0.00 0.01 0.00 0.00 0.00 0.01 0.00
0.00 0.01 0.01 0.00 0.00 0.01 0.01 0.00 0.00 0.00 0.02 0.00 0.00 0.01 0.01 0.00 0.00 0.00 0.00 0.00 0.02 0.02 0.01 0.02 0.01 0.00 0.00 0.00 0.00 0.00 0.00 0.00 0.00 0.00 0.00 0.01 0.08 0.05 0.01 0.00 0.00 0.01 0.01 0.00 0.00 0.00 0.03
0.00 0.00 0.00 0.00 0.01 0.01 0.01 0.00 0.00 0.00 0.02 0.00 0.00 0.00 0.01 0.00 0.00 0.00 0.00 0.00 0.00 0.00 0.01 0.01 0.00 0.00 0.00 0.00 0.00 0.00 0.00 0.00 0.00 0.00 0.00 0.00 0.02 0.04 0.01 0.00 0.00 0.01 0.01 0.00 0.01 0.00 0.01
0.00 0.00 0.00 0.01 0.01 0.01 0.00 0.00 0.00 0.02 0.01 0.00 0.00 0.01 0.04 0.02 0.00 0.00 0.00 0.00 0.00 0.00 0.00 0.00 0.00 0.00 0.00 0.00 0.00 0.00 0.00 0.00 0.00 0.00 0.00 0.00 0.00 0.00 0.01 0.00 0.00 0.00 0.00 0.00 0.00 0.00 0.00
0.00 0.00 0.00 0.01 0.01 0.01 0.00 0.00 0.00 0.02 0.03 0.00 0.00 0.01 0.01 0.01 0.00 0.00 0.00 0.00 0.00 0.00 0.00 0.00 0.00 0.00 0.00 0.00 0.00 0.00 0.00 0.00 0.00 0.00 0.00 0.00 0.00 0.00 0.00 0.00 0.00 0.00 0.01 0.00 0.00 0.00 0.00
0.00 0.01 0.00 0.00 0.00 0.01 0.02 0.02 0.00 0.01 0.05 0.01 0.00 0.00 0.02 0.05 0.00 0.00 0.00 0.00 0.00 0.00 0.00 0.00 0.00 0.00 0.01 0.01 0.00 0.00 0.00 0.00 0.00 0.00 0.00 0.00 0.00 0.00 0.00 0.00 0.00 0.00 0.00 0.00 0.01 0.02 0.01
0.00 0.01 0.01 0.00 0.00 0.00 0.01 0.01 0.01 0.01 0.04 0.01 0.00 0.00 0.01 0.03 0.00 0.00 0.00 0.00 0.00 0.00 0.00 0.00 0.00 0.00 0.00 0.01 0.00 0.00 0.00 0.00 0.00 0.03 0.02 0.00 0.00 0.00 0.00 0.00 0.00 0.00 0.00 0.00 0.01 0.01 0.01
0.00 0.00 0.01 0.01 0.00 0.00 0.01 0.01 0.01 0.01 0.04 0.02 0.00 0.00 0.01 0.02 0.00 0.00 0.00 0.00 0.00 0.00 0.00 0.00 0.00 0.00 0.00 0.02 0.09 0.04 0.00 0.00 0.01 0.02 0.08 0.03 0.00 0.00 0.00 0.00 0.00 0.00 0.00 0.00 0.00 0.00 0.00
0.00 0.00 0.00 0.00 0.00 0.02 0.02 0.01 0.00 0.00 0.04 0.05 0.01 0.00 0.00 0.01 0.00 0.00 0.00 0.00 0.00 0.00 0.00 0.00 0.00 0.00 0.00 0.05 0.06 0.01 0.01 0.03 0.02 0.06 0.17 0.16 0.01 0.00 0.00 0.00 0.00 0.00 0.00 0.01 0.00 0.00 0.00
MSLP
1023.64 1023.84 1023.67 1023.69 1023.39 1023.24 1023.07 1023.09 1023.14 1022.78 1022.66 1022.28 1021.98 1021.78 1021.39 1020.84 1020.67 1019.93 1019.28 1018.65 1017.87 1017.44 1017.09 1016.68 1016.49 1016.17 1015.37 1014.48 1011.11 1008.23 1008.31 1008.28 1008.41 1008.48 1008.55 1008.52 1008.58 1008.85 1008.77 1008.55 1008.46 1008.04 1007.79 1007.46 1006.96 1006.77 1006.64
1023.88 1023.89 1023.81 1023.76 1023.49 1023.10 1023.02 1022.84 1022.98 1022.69 1022.63 1022.26 1022.00 1021.64 1021.36 1020.96 1020.44 1019.94 1019.37 1018.56 1017.81 1016.92 1016.50 1016.22 1016.24 1016.12 1015.77 1013.71 1008.86 1008.45 1008.55 1008.60 1008.42 1008.57 1008.46 1008.37 1007.82 1007.98 1008.04 1007.88 1007.93 1007.12 1007.20 1007.03 1006.62 1006.38 1006.07
1023.58 1023.46 1023.74 1023.92 1023.61 1023.18 1023.05 1022.79 1022.65 1022.58 1022.45 1022.21 1021.80 1021.68 1021.24 1020.78 1020.27 1019.75 1019.18 1018.30 1017.25 1016.51 1015.83 1015.77 1015.79 1015.84 1015.28 1011.06 1008.74 1008.51 1008.89 1008.58 1008.10 1008.32 1008.27 1007.90 1007.68 1007.83 1007.59 1007.49 1006.97 1006.77 1007.04 1006.80 1006.17 1005.81 1005.38
1023.71 1023.70 1023.58 1023.56 1023.58 1023.35 1023.15 1022.81 1022.67 1022.43 1022.21 1022.01 1021.69 1021.63 1021.18 1020.69 1020.14 1019.52 1018.69 1017.67 1016.45 1015.52 1014.86 1014.76 1015.01 1015.34 1013.64 1009.79 1009.43 1009.05 1008.60 1007.96 1007.61 1007.79 1007.85 1007.37 1007.42 1007.53 1007.63 1007.23 1006.93 1006.98 1006.72 1006.74 1005.57 1005.17 1004.84
1023.54 1023.63 1023.51 1023.52 1023.27 1023.20 1022.89 1022.72 1022.54 1022.41 1022.13 1021.88 1021.56 1021.35 1021.13 1020.58 1020.13 1019.19 1018.40 1016.99 1015.46 1014.97 1014.13 1014.30 1014.82 1014.74 1012.03 1009.24 1008.97 1007.69 1007.79 1007.40 1006.85 1006.94 1006.97 1006.87 1007.16 1007.26 1007.48 1007.60 1007.87 1007.15 1006.60 1006.33 1005.84 1004.89 1004.64
1023.34 1023.47 1023.36 1023.32 1023.13 1023.16 1022.91 1022.66 1022.36 1022.43 1022.02 1021.87 1021.54 1021.38 1021.07 1020.51 1019.99 1018.91 1017.96 1016.15 1014.82 1014.83 1014.53 1014.36 1014.37 1014.59 1011.04 1009.21 1008.23 1007.58 1007.14 1007.27 1006.94 1006.67 1006.69 1007.00 1007.14 1007.21 1007.49 1007.99 1006.69 1007.32 1006.83 1006.06 1005.52 1004.96 1004.72
1023.17 1023.12 1023.25 1023.15 1023.16 1023.01 1022.76 1022.59 1022.40 1022.31 1021.99 1021.89 1021.57 1021.40 1021.10 1020.54 1020.02 1018.90 1018.03 1016.51 1016.43 1015.52 1015.59 1015.35 1014.20 1013.11 1010.85 1009.53 1008.68 1007.61 1007.64 1007.40 1006.87 1006.92 1006.99 1006.93 1007.32 1006.33 1006.80 1006.94 1006.92 1006.90 1006.56 1006.10 1005.51 1005.10 1004.94
1023.10 1023.06 1023.17 1023.09 1023.00 1022.81 1022.52 1022.59 1022.44 1022.24 1022.07 1021.85 1021.68 1021.33 1020.99 1020.73 1019.99 1019.32 1019.37 1019.31 1019.80 1019.83 1016.38 1014.46 1013.19 1011.70 1010.01 1009.99 1008.74 1006.91 1007.77 1008.12 1007.22 1006.97 1007.25 1007.31 1006.00 1006.41 1006.52 1006.81 1006.92 1006.73 1006.44 1005.99 1005.95 1005.71 1005.56
1022.96 1022.92 1022.96 1023.01 1022.84 1022.55 1022.50 1022.47 1022.35 1022.11 1022.09 1021.92 1021.85 1021.52 1021.33 1020.94 1020.09 1020.02 1020.31 1019.83 1019.45 1019.14 1017.59 1012.64 1010.97 1009.39 1008.07 1008.04 1006.83 1004.83 1007.23 1006.88 1006.87 1006.96 1006.79 1006.72 1005.18 1005.02 1005.83 1006.15 1006.39 1006.09 1005.89 1006.24 1006.02 1005.83 1005.42
1022.79 1022.92 1022.89 1022.75 1022.81 1022.53 1022.44 1022.39 1022.22 1021.86 1022.07 1022.13 1021.95 1021.67 1021.39 1020.91 1020.40 1020.70 1020.25 1019.76 1019.15 1018.79 1017.53 1012.09 1010.18 1007.62 1006.95 1007.11 1005.96 1004.25 1004.40 1005.79 1006.18 1005.47 1006.52 1006.18 1004.94 1005.17 1005.53 1005.16 1005.94 1005.45 1005.40 1005.83 1006.01 1006.31 1005.81
1022.55 1022.71 1022.81 1022.59 1022.61 1022.41 1022.36 1022.20 1022.04 1021.92 1022.11 1021.97 1021.83 1021.63 1021.55 1021.27 1021.71 1021.23 1020.58 1019.91 1019.11 1018.64 1016.96 1010.51 1008.52 1006.55 1006.53 1006.58 1004.59 1003.17 1003.26 1004.34 1004.04 1004.76 1005.51 1003.48 1004.05 1004.40 1004.38 1003.69 1005.04 1004.36 1005.08 1005.40 1005.83 1006.14 1006.12
1022.39 1022.44 1022.47 1022.47 1022.49 1022.27 1022.10 1022.03 1021.94 1021.85 1021.92 1021.89 1021.77 1021.71 1021.47 1021.50 1021.77 1021.04 1020.78 1020.09 1019.38 1019.04 1014.79 1011.33 1008.52 1007.53 1007.26 1006.58 1005.19 1003.85 1003.50 1003.69 1004.02 1004.91 1004.47 1003.45 1003.26 1003.39 1003.09 1003.10 1003.54 1004.04 1004.91 1005.53 1005.90 1006.51 1006.03
1022.09 1022.07 1022.25 1022.33 1022.29 1022.13 1021.96 1021.90 1021.80 1021.69 1021.81 1021.71 1021.59 1021.34 1021.14 1021.16 1021.01 1020.64 1020.70 1020.62 1020.27 1017.95 1014.22 1011.66 1010.12 1009.38 1008.02 1006.88 1005.14 1004.42 1004.36 1004.14 1004.19 1004.76 1004.64 1004.09 1003.26 1003.04 1002.93 1003.06 1003.27 1003.82 1004.75 1005.76 1006.23 1006.36 1005.01
1021.80 1021.76 1022.01 1022.06 1022.07 1022.05 1021.95 1021.80 1021.62 1021.61 1021.54 1021.40 1021.18 1020.92 1020.69 1020.41 1020.33 1020.65 1021.01 1021.28 1020.12 1016.99 1015.51 1013.34 1012.15 1010.25 1008.93 1007.98 1006.65 1005.93 1004.72 1004.59 1004.31 1004.21 1004.38 1004.10 1003.18 1002.57 1002.07 1002.52 1002.83 1003.45 1004.23 1004.69 1005.02 1005.13 1004.81
1021.54 1021.44 1021.65 1021.72 1021.95 1021.84 1021.81 1021.73 1021.47 1021.40 1021.38 1021.20 1020.98 1020.91 1020.74 1020.07 1020.09 1020.66 1021.34 1021.03 1019.05 1017.09 1016.23 1015.20 1012.86 1010.89 1010.00 1009.41 1009.12 1007.79 1006.23 1006.13 1005.46 1005.05 1005.00 1004.04 1003.30 1001.52 1001.17 1001.19 1002.18 1002.09 1003.25 1003.07 1004.28 1004.61 1004.69
1021.18 1021.18 1021.29 1021.44 1021.65 1021.68 1021.59 1021.55 1021.38 1021.23 1021.15 1021.04 1021.23 1021.14 1020.80 1019.86 1019.95 1020.45 1020.89 1019.62 1018.27 1017.11 1016.36 1015.18 1014.05 1013.14 1012.01 1010.76 1009.69 1008.53 1007.79 1007.59 1006.39 1005.95 1005.55 1004.74 1003.69 1001.80 1000.93 1000.85 1001.28 1001.29 1001.78 1003.22 1003.72 1004.04 1004.31
1020.76 1020.80 1021.02 1021.16 1021.36 1021.44 1021.42 1021.39 1021.20 1021.07 1021.00 1020.94 1021.49 1021.30 1020.30 1019.80 1019.78 1020.52 1020.29 1018.95 1017.64 1016.53 1016.20 1015.23 1014.51 1013.89 1013.03 1011.70 1011.30 1010.32 1009.20 1008.74 1007.20 1006.44 1006.32 1005.63 1004.69 1002.85 1001.52 1001.20 1001.11 1001.61 1001.70 1002.13 1002.52 1003.32 1003.36
1020.32 1020.53 1020.72 1020.76 1020.92 1021.14 1021.21 1021.17 1021.00 1020.89 1020.90 1020.99 1021.52 1021.62 1020.26 1020.04 1020.47 1020.26 1019.75 1018.30 1017.26 1015.99 1015.60 1014.83 1014.01 1013.48 1013.17 1012.01 1011.26 1010.67 1008.93 1008.97 1008.42 1007.50 1006.96 1006.54 1005.93 1004.34 1002.56 1001.65 1001.55 1001.58 1001.38 1001.94 1002.31 1002.88 1002.94
1019.84 1019.99 1020.21 1020.32 1020.40 1020.76 1020.91 1020.86 1020.75 1020.69 1020.69 1021.45 1021.69 1021.40 1020.38 1020.19 1020.47 1020.34 1019.22 1018.16 1016.93 1015.85 1015.15 1014.55 1013.78 1013.26 1012.78 1011.83 1011.00 1010.28 1009.52 1008.29 1007.84 1007.89 1007.65 1006.76 1006.85 1005.76 1003.83 1002.83 1002.12 1002.59 1002.19 1001.60 1001.91 1002.52 1002.90
1019.22 1019.49 1019.76 1019.85 1019.95 1020.29 1020.51 1020.55 1020.49 1020.41 1020.45 1021.19 1021.78 1021.69 1020.98 1020.34 1020.43 1020.20 1019.39 1018.04 1016.87 1015.77 1014.87 1014.58 1013.55 1012.74 1012.26 1011.48 1010.74 1010.03 1009.33 1008.50 1007.45 1007.36 1007.23 1006.90 1007.61 1007.77 1007.08 1005.96 1004.13 1003.63 1003.03 1002.29 1001.97 1003.06 1003.60
1018.69 1018.92 1019.23 1019.36 1019.51 1019.84 1020.09 1020.18 1020.20 1020.19 1020.20 1020.94 1021.58 1021.62 1021.53 1021.08 1020.63 1020.24 1019.42 1018.43 1017.28 1016.52 1015.41 1014.49 1013.60 1013.32 1013.06 1012.15 1011.53 1011.01 1010.21 1009.68 1008.31 1008.05 1007.94 1008.24 1008.48 1008.47 1007.40 1005.97 1004.84 1003.90 1003.56 1003.02 1002.74 1003.25 1003.63
1018.15 1018.37 1018.69 1018.84 1019.07 1019.35 1019.53 1019.74 1019.87 1019.93 1020.11 1020.96 1021.34 1021.46 1021.30 1021.07 1020.52 1020.15 1019.31 1018.47 1017.53 1016.62 1016.10 1014.88 1014.59 1013.66 1012.94 1012.55 1011.88 1011.69 1011.30 1010.43 1009.33 1008.35 1008.36 1008.45 1008.69 1009.24 1008.10 1006.15 1005.16 1004.60 1004.23 1003.46 1003.38 1003.89 1003.86
1017.48 1017.68 1018.04 1018.28 1018.63 1018.83 1019.05 1019.23 1019.43 1019.61 1020.03 1020.66 1021.12 1020.96 1021.34 1020.80 1020.41 1020.15 1019.24 1018.41 1017.81 1017.13 1015.77 1015.08 1014.54 1013.69 1012.66 1011.93 1011.36 1010.82 1010.47 1009.20 1008.82 1009.12 1008.55 1008.15 1008.80 1009.61 1008.91 1006.92 1005.56 1004.63 1003.66 1003.57 1003.52 1003.14 1003.58
1016.74 1017.10 1017.43 1017.72 1018.08 1018.32 1018.50 1018.74 1018.93 1019.12 1019.60 1020.24 1020.74 1020.84 1020.89 1020.55 1020.25 1019.68 1019.06 1018.71 1017.99 1017.37 1016.45 1015.10 1014.32 1013.79 1012.61 1011.87 1010.90 1009.93 1009.53 1009.46 1009.51 1009.17 1009.07 1008.84 1009.11 1009.39 1008.74 1007.36 1005.94 1004.45 1003.24 1003.15 1003.05 1002.86 1003.11
1016.07 1016.45 1016.74 1017.12 1017.52 1017.74 1017.93 1018.17 1018.39 1018.59 1018.95 1019.91 1020.24 1020.53 1020.66 1020.40 1019.87 1019.43 1018.94 1018.51 1017.93 1017.08 1016.32 1015.33 1014.44 1013.83 1013.11 1012.58 1012.00 1011.43 1010.76 1010.42 1009.85 1009.21 1009.05 1009.06 1009.36 1009.55 1009.23 1008.28 1006.63 1004.74 1003.77 1003.30 1002.72 1003.76 1003.56
1015.28 1015.73 1016.13 1016.54 1016.94 1017.18 1017.41 1017.63 1017.83 1018.04 1018.23 1019.29 1019.73 1019.86 1020.47 1020.40 1019.32 1018.71 1018.56 1018.30 1018.01 1017.38 1016.61 1015.48 1014.49 1013.50 1013.21 1013.21 1013.11 1012.86 1011.97 1010.84 1010.21 1009.51 1009.00 1009.37 1009.64 1010.01 1009.95 1009.00 1007.13 1004.97 1003.85 1003.23 1003.09 1003.97 1004.06
1014.63 1015.05 1015.42 1015.83 1016.22 1016.60 1016.90 1017.11 1017.29 1017.54 1017.80 1018.65 1019.20 1019.35 1020.00 1019.93 1018.92 1018.68 1018.41 1018.05 1017.60 1017.43 1017.12 1016.27 1015.54 1014.40 1013.96 1014.16 1013.96 1013.46 1012.52 1011.29 1010.74 1010.25 1010.03 1010.39 1010.41 1010.35 1010.16 1009.35 1007.40 1005.17 1003.80 1003.27 1003.78 1004.33 1004.07
1013.84 1014.31 1014.80 1015.19 1015.64 1015.99 1016.35 1016.56 1016.84 1017.06 1017.38 1018.12 1018.64 1018.78 1019.32 1019.40 1018.59 1018.13 1017.82 1017.71 1017.60 1017.58 1017.46 1016.66 1016.07 1015.49 1015.23 1014.99 1014.48 1013.83 1013.06 1011.74 1011.05 1010.56 1010.58 1010.38 1010.50 1010.38 1010.11 1009.32 1007.90 1005.24 1004.18 1003.97 1004.29 1004.04 1004.19
1013.13 1013.68 1014.17 1014.58 1015.00 1015.43 1015.77 1015.98 1016.31 1016.63 1016.94 1017.47 1018.29 1018.32 1018.62 1019.01 1018.32 1017.55 1017.19 1016.86 1016.81 1016.69 1017.02 1016.71 1016.46 1016.28 1015.91 1015.84 1015.69 1015.04 1013.64 1012.33 1011.34 1010.77 1010.35 1010.44 1010.06 1009.20 1008.28 1007.31 1006.12 1005.44 1004.94 1004.36 1004.25 1004.31 1004.87
Thickness
5543 5539 5539 5536 5538 5537 5537 5534 5532 5535 5534 5537 5539 5539 5541 5546 5545 5553 5558 5563 5570 5575 5580 5585 5588 5593 5602 5610 5631 5659 5663 5664 5664 5665 5661 5661 5657 5655 5654 5661 5662 5663 5672 5677 5683 5682 5681
5530 5528 5527 5525 5525 5527 5525 5525 5522 5523 5521 5524 5525 5528 5530 5534 5537 5541 5546 5551 5557 5569 5573 5576 5578 5582 5588 5597 5641 5647 5648 5651 5654 5653 5652 5653 5657 5657 5654 5657 5655 5670 5668 5671 5676 5677 5680
5523 5522 5516 5511 5513 5516 5515 5515 5515 5513 5511 5512 5515 5517 5521 5525 5529 5533 5537 5543 5551 5560 5566 5568 5570 5572 5581 5606 5631 5636 5634 5637 5642 5642 5641 5647 5650 5648 5653 5650 5662 5663 5653 5657 5666 5674 5677
5509 5507 5507 5505 5502 5503 5502 5503 5503 5503 5504 5505 5508 5508 5512 5517 5521 5524 5531 5538 5547 5557 5563 5563 5564 5564 5579 5612 5615 5620 5626 5632 5635 5635 5636 5640 5641 5639 5639 5648 5648 5646 5649 5637 5664 5671 5679
5499 5496 5495 5493 5494 5493 5495 5495 5495 5495 5497 5499 5501 5502 5503 5508 5510 5517 5523 5533 5544 5549 5557 5557 5554 5554 5573 5604 5607 5620 5621 5623 5630 5630 5631 5633 5630 5627 5631 5623 5618 5625 5627 5634 5646 5669 5669
5489 5486 5485 5485 5487 5485 5487 5489 5491 5489 5492 5493 5494 5494 5495 5498 5500 5507 5515 5529 5537 5537 5542 5544 5546 5544 5578 5590 5601 5607 5613 5614 5615 5619 5618 5613 5609 5609 5607 5602 5612 5616 5621 5633 5637 5653 5654
5480 5480 5479 5479 5479 5479 5481 5483 5484 5484 5485 5484 5485 5485 5485 5487 5488 5494 5502 5514 5506 5512 5517 5517 5532 5543 5567 5575 5581 5594 5595 5597 5603 5602 5594 5602 5587 5603 5610 5612 5622 5619 5617 5617 5634 5643 5640
5472 5472 5471 5472 5473 5475 5477 5476 5476 5476 5476 5476 5474 5475 5476 5474 5476 5477 5475 5473 5466 5460 5491 5516 5526 5539 5558 5553 5563 5587 5577 5573 5583 5581 5584 5583 5592 5600 5602 5601 5603 5604 5608 5613 5617 5626 5624
5465 5466 5466 5466 5468 5470 5469 5469 5468 5469 5466 5465 5462 5463 5461 5461 5463 5459 5454 5455 5452 5449 5457 5519 5534 5545 5555 5549 5559 5594 5562 5567 5568 5570 5573 5572 5602 5606 5596 5595 5594 5597 5602 5601 5608 5618 5616
5459 5458 5459 5460 5460 5461 5461 5461 5460 5460 5455 5452 5450 5450 5448 5450 5449 5438 5441 5440 5440 5436 5424 5504 5511 5537 5546 5540 5544 5577 5578 5561 5555 5572 5566 5569 5594 5589 5585 5593 5588 5589 5604 5603 5601 5594 5588
5452 5451 5451 5453 5453 5454 5453 5452 5451 5450 5445 5443 5441 5438 5433 5430 5425 5419 5428 5424 5425 5424 5395 5513 5516 5519 5514 5523 5548 5567 5564 5553 5563 5563 5559 5586 5583 5583 5585 5602 5590 5600 5602 5597 5592 5585 5586
5444 5445 5445 5445 5445 5446 5446 5444 5443 5441 5436 5433 5429 5424 5421 5417 5409 5410 5409 5405 5405 5396 5408 5464 5499 5492 5490 5500 5523 5543 5542 5550 5552 5541 5552 5576 5581 5582 5590 5597 5598 5599 5588 5586 5584 5573 5564
5437 5439 5437 5437 5436 5437 5437 5435 5433 5431 5427 5423 5418 5413 5408 5405 5401 5395 5389 5379 5368 5371 5426 5439 5449 5454 5467 5479 5507 5517 5520 5525 5525 5522 5529 5552 5562 5573 5582 5579 5586 5586 5572 5556 5557 5551 5570
5430 5432 5430 5429 5429 5428 5427 5426 5425 5421 5418 5414 5409 5404 5400 5399 5391 5379 5365 5354 5334 5383 5388 5408 5409 5433 5450 5462 5475 5484 5510 5513 5522 5529 5524 5527 5546 5563 5577 5575 5572 5570 5568 5557 5561 5559 5572
5422 5424 5422 5422 5419 5419 5417 5415 5415 5411 5407 5404 5399 5392 5391 5387 5376 5361 5347 5312 5349 5373 5367 5367 5406 5424 5431 5448 5449 5461 5487 5480 5496 5504 5518 5522 5535 5566 5574 5583 5574 5580 5556 5590 5569 5570 5561
5415 5415 5415 5413 5411 5410 5408 5406 5404 5402 5398 5394 5387 5376 5375 5374 5363 5354 5346 5354 5355 5367 5370 5382 5385 5391 5398 5427 5437 5455 5471 5467 5488 5491 5496 5517 5529 5558 5570 5571 5572 5574 5587 5561 5558 5558 5558
5407 5408 5406 5405 5403 5401 5398 5396 5394 5392 5388 5384 5372 5363 5368 5363 5359 5349 5333 5353 5363 5375 5374 5379 5383 5389 5396 5415 5421 5432 5453 5449 5473 5485 5487 5495 5517 5541 5561 5558 5558 5558 5562 5565 5574 5559 5566
5400 5399 5397 5397 5395 5392 5389 5387 5385 5383 5379 5373 5362 5334 5358 5355 5340 5345 5348 5365 5371 5376 5380 5383 5389 5397 5393 5415 5424 5419 5447 5440 5454 5468 5475 5478 5493 5510 5544 5553 5558 5558 5564 5568 5553 5560 5560
5392 5392 5391 5390 5389 5384 5381 5379 5376 5374 5371 5358 5352 5345 5352 5350 5340 5330 5356 5360 5374 5375 5381 5386 5396 5402 5399 5414 5422 5433 5439 5459 5464 5458 5462 5476 5478 5495 5529 5539 5548 5540 5549 5566 5565 5563 5560
5383 5383 5382 5382 5381 5377 5374 5371 5368 5367 5364 5352 5344 5336 5331 5347 5341 5339 5348 5360 5367 5379 5382 5382 5395 5405 5402 5415 5427 5429 5441 5455 5464 5461 5469 5478 5473 5468 5474 5487 5527 5530 5539 5549 5558 5545 5542
5376 5376 5375 5374 5372 5370 5367 5364 5362 5359 5356 5345 5336 5335 5328 5308 5329 5337 5347 5354 5364 5362 5376 5381 5389 5393 5389 5398 5405 5412 5425 5434 5455 5459 5464 5458 5456 5458 5481 5508 5518 5524 5529 5538 5543 5537 5539
5368 5369 5367 5367 5366 5364 5361 5357 5354 5352 5348 5337 5329 5326 5330 5325 5331 5335 5340 5345 5358 5363 5364 5377 5372 5385 5389 5390 5402 5399 5407 5417 5434 5447 5458 5463 5455 5451 5464 5500 5514 5518 5516 5531 5536 5532 5534
5361 5362 5361 5361 5359 5357 5355 5352 5349 5345 5340 5331 5324 5326 5321 5323 5326 5320 5334 5348 5350 5356 5372 5378 5379 5380 5389 5399 5404 5408 5410 5428 5435 5435 5447 5461 5455 5448 5448 5482 5495 5506 5518 5523 5527 5536 5536
5355 5355 5354 5354 5353 5352 5350 5347 5344 5340 5335 5328 5320 5320 5320 5321 5322 5330 5335 5337 5345 5350 5356 5373 5379 5381 5396 5401 5407 5417 5420 5424 5423 5434 5441 5454 5455 5448 5456 5472 5477 5511 5522 5525 5528 5534 5537
5348 5349 5350 5349 5347 5347 5345 5343 5340 5336 5331 5323 5317 5316 5314 5304 5322 5324 5329 5334 5340 5348 5356 5366 5377 5383 5384 5391 5393 5405 5409 5424 5430 5438 5442 5444 5445 5441 5453 5463 5482 5508 5514 5518 5527 5520 5528
5342 5343 5343 5343 5342 5342 5340 5339 5336 5332 5328 5321 5315 5313 5309 5309 5318 5328 5328 5331 5330 5336 5346 5360 5373 5379 5385 5378 5370 5379 5390 5420 5428 5434 5441 5436 5437 5442 5434 5445 5439 5498 5514 5520 5524 5509 5522
5335 5337 5339 5339 5339 5337 5336 5334 5331 5328 5324 5318 5312 5311 5307 5305 5316 5320 5319 5324 5334 5335 5335 5346 5356 5367 5376 5364 5373 5378 5392 5415 5400 5417 5425 5409 5408 5427 5420 5419 5458 5492 5513 5518 5509 5511 5520
5330 5332 5334 5335 5334 5334 5332 5330 5327 5323 5319 5315 5309 5311 5307 5308 5314 5321 5324 5323 5322 5326 5326 5340 5345 5354 5359 5365 5382 5386 5376 5403 5409 5417 5420 5417 5402 5389 5407 5415 5441 5495 5507 5511 5506 5514 5519
5324 5326 5328 5330 5330 5329 5328 5327 5324 5320 5316 5311 5307 5310 5308 5307 5311 5319 5322 5324 5324 5328 5329 5335 5344 5343 5359 5360 5363 5363 5375 5397 5412 5416 5412 5423 5418 5428 5437 5446 5471 5483 5493 5504 5506 5510 5508